Location: Dittelspoint
(48.7198°N, 10.7214°E)
Time: 17:43:05
(UTC+00:00)

BREEZE M DEB (TANK) - Pass Details

Date: 09 April 2020
Orbit: 303 x 11878 km, 49.5° (Epoch: 01 June)

Event Time Altitude Azimuth Distance (km) Brightness Sun altitude
Rises 19:16:35 0° 213° (SSW) 2,249 5.5 -12.6°
Reaches altitude 10° 19:18:05 10° 201° (SSW) 1,626 4.7 -12.8°
Maximum altitude 19:21:07 35° 133° (SE) 1,184 3.5 -13.2°
Drops below altitude 10° 19:28:29 10° 71° (ENE) 4,035 6.3 -14.3°
Sets 19:34:42 0° 65° (ENE) 6,596 7.5 -15.2°
